Location: El Escondido
(32.5691°N, 116.4250°W)
Time: 03:37:36
(UTC+00:00)

Envisat - Visible Passes

Search period start: 21 June 2024 00:00
Search period end: 01 July 2024 00:00
Orbit: 762 x 764 km, 98.3° (Epoch: 20 June)

Date Brightness Start Highest point End Pass type
(mag) Time Alt. Az. Time Alt. Az. Time Alt. Az.
21 Jun 4.9 10:05:04 10° NE 10:09:05 24° E 10:11:57 15° SE visible
21 Jun 3.9 11:43:34 10° N 11:48:00 31° WNW 11:52:07 11° SW visible
22 Jun 2.9 11:05:44 10° N 11:10:48 77° WNW 11:14:16 21° SSW visible
23 Jun 3.9 10:28:37 10° NNE 10:33:25 42° E 10:36:26 21° SSE visible
23 Jun 4.6 12:08:39 10° NNW 12:12:00 18° WNW 12:15:20 10° WSW visible
24 Jun 5.2 09:52:34 10° NE 09:55:52 17° E 09:58:36 12° SE visible
24 Jun 3.5 11:30:11 10° N 11:34:56 42° WNW 11:38:45 15° SW visible
25 Jun 3.0 10:52:35 10° NNE 10:57:41 79° ESE 11:00:54 23° S visible
26 Jun 4.4 10:15:45 10° NE 10:20:14 31° E 10:23:04 18° SSE visible
26 Jun 4.3 11:54:59 10° NNW 11:58:59 24° WNW 12:02:59 10° WSW visible
27 Jun 5.5 09:40:34 10° ENE 09:42:37 12° E 09:44:38 10° ESE visible
27 Jun 3.1 11:16:53 10° N 11:21:51 58° WNW 11:25:22 19° SSW visible
28 Jun 3.5 10:39:32 10° NNE 10:44:31 57° E 10:47:31 23° S visible
29 Jun 4.9 10:03:03 10° NE 10:07:01 23° E 10:09:40 15° SE visible
29 Jun 3.9 11:41:29 10° N 11:45:56 32° WNW 11:49:49 13° SW visible
30 Jun 2.9 11:03:40 10° N 11:08:44 79° WNW 11:11:58 23° SSW visible
